FW0708 Weather Reports


time (UTC)temp
C
wind
direction
speed
KPH
gust
KPH
rain 1hr
cm
rain 24hr
cm
rain mn
cm
humidity
%
barometer
mb
20260510130011 4 260 0.0 3.2 0.00 0.00 0.00 85 1017.6
20260510124507 3 29 0.0 1.6 0.00 0.00 0.00 89 1017.5
20260510123007 3 29 0.0 0.0 0.00 0.00 0.00 91 1017.3
20260510121501 2 29 0.0 1.6 0.00 0.00 0.00 92 1016.8
20260510120056 1 30 0.0 0.0 0.00 0.00 0.00 92 1016.7
20260510114554 1 30 0.0 0.0 0.00 0.00 0.00 92 1016.5
20260510113052 0 30 0.0 0.0 0.00 0.00 0.00 91 1016.5
20260510111606 0 30 0.0 0.0 0.00 0.00 0.00 90 1016.2
20260510110145 0 30 0.0 0.0 0.00 0.00 0.00 90 1016.0
20260510104543 0 30 0.0 0.0 0.00 0.00 0.00 90 1015.7
20260510103042 0 30 0.0 0.0 0.00 0.00 0.00 90 1015.4
20260510101539 0 30 0.0 0.0 0.00 0.00 0.00 90 1015.2
20260510100038 0 30 0.0 0.0 0.00 0.00 0.00 89 1014.9
20260510094535 0 30 0.0 0.0 0.00 0.00 0.00 89 1014.8
20260510093056 0 30 0.0 0.0 0.00 0.00 0.00 90 1014.6
20260510091532 0 30 0.0 0.0 0.00 0.00 0.00 89 1014.4
20260510090046 0 30 0.0 0.0 0.00 0.00 0.00 89 1014.2
20260510084532 0 30 0.0 1.6 0.00 0.00 0.00 88 1014.1
20260510083028 0 30 0.0 0.0 0.00 0.00 0.00 87 1014.1
20260510081527 0 30 0.0 0.0 0.00 0.00 0.00 87 1013.9
20260510080031 0 30 0.0 0.0 0.00 0.00 0.00 86 1013.8
20260510074523 0 30 0.0 0.0 0.00 0.00 0.00 86 1013.7
20260510073020 0 30 0.0 0.0 0.00 0.00 0.00 86 1013.6
20260510071522 0 30 0.0 0.0 0.00 0.00 0.00 86 1013.5
20260510070019 0 30 0.0 3.2 0.00 0.00 0.00 86 1013.4
20260510064518 1 30 0.0 0.0 0.00 0.00 0.00 86 1013.4
20260510063018 1 30 0.0 0.0 0.00 0.00 0.00 86 1013.5
20260510061517 1 30 0.0 0.0 0.00 0.00 0.00 86 1013.3
20260510060015 1 30 0.0 0.0 0.00 0.00 0.00 87 1013.4
20260510054514 0 30 0.0 3.2 0.00 0.00 0.00 86 1013.3
20260510053012 0 30 0.0 0.0 0.00 0.00 0.00 86 1013.0
20260510051512 0 30 0.0 0.0 0.00 0.00 0.00 85 1013.0
20260510050008 0 30 0.0 0.0 0.00 0.00 0.00 84 1013.0
20260510044507 0 30 0.0 0.0 0.00 0.00 0.00 82 1012.9
20260510043009 1 30 0.0 0.0 0.00 0.00 0.00 80 1012.9
20260510041503 1 30 0.0 0.0 0.00 0.00 0.00 78 1012.8
20260510040002 1 30 0.0 0.0 0.00 0.00 0.00 78 1012.6
20260510034602 2 30 0.0 0.0 0.00 0.00 0.00 77 1012.5
20260510033100 2 30 0.0 0.0 0.00 0.00 0.00 75 1012.4
20260510031554 2 30 0.0 0.0 0.00 0.00 0.00 73 1012.2
20260510030048 3 30 0.0 0.0 0.00 0.00 0.00 71 1012.2
20260510024546 3 30 0.0 0.0 0.00 0.00 0.00 69 1012.0
20260510023048 4 30 0.0 1.6 0.00 0.00 0.00 66 1011.8
20260510021538 5 30 0.0 0.0 0.00 0.00 0.00 62 1011.7
20260510020035 6 30 0.0 1.6 0.00 0.00 0.00 60 1011.4
20260510014532 6 30 0.0 0.0 0.00 0.00 0.00 58 1011.4
20260510013030 7 30 0.0 0.0 0.00 0.00 0.00 54 1011.0
20260510011528 8 30 0.0 0.0 0.00 0.00 0.00 50 1010.8
20260510010025 8 30 0.0 0.0 0.00 0.00 0.00 49 1010.5
20260510004523 8 30 0.0 3.2 0.00 0.00 0.00 46 1010.2
20260510003025 9 30 0.0 1.6 0.00 0.00 0.00 45 1010.1
20260510001520 9 30 1.6 4.8 0.00 0.00 0.00 43 1010.0
20260510000021 9 27 0.0 1.6 0.00 0.00 0.00 43 1009.9
20260509234519 9 36 0.0 8.0 0.00 0.00 0.00 42 1009.7
20260509233023 9 26 1.6 6.4 0.00 0.00 0.00 43 1009.6
20260509231514 9 31 1.6 8.0 0.00 0.00 0.00 43 1009.3
20260509230017 10 47 4.8 14.5 0.00 0.00 0.00 42 1009.3
20260509224513 10 325 6.4 14.5 0.00 0.00 0.00 42 1009.2
20260509223015 10 39 3.2 12.9 0.00 0.00 0.00 43 1009.1
20260509221513 10 14 4.8 16.1 0.00 0.00 0.00 42 1009.0
20260509220010 10 14 8.0 19.3 0.00 0.00 0.00 42 1008.8
20260509214509 11 2 8.0 19.3 0.00 0.00 0.00 43 1008.9
20260509213009 10 353 8.0 20.9 0.00 0.00 0.00 45 1008.8
20260509211508 10 336 9.7 25.7 0.00 0.00 0.00 44 1008.7
20260509210008 10 316 16.1 25.7 0.00 0.00 0.00 40 1008.6
20260509204506 11 341 17.7 30.6 0.00 0.00 0.00 38 1008.6
20260509203004 11 341 19.3 27.4 0.00 0.00 0.00 40 1008.5
20260509201502 10 291 4.8 25.7 0.00 0.00 0.00 42 1008.0
20260509200002 10 324 14.5 27.4 0.00 0.00 0.00 41 1007.9
20260509194501 10 331 12.9 29.0 0.00 0.00 0.00 42 1007.8
20260509193136 10 336 19.3 32.2 0.00 0.00 0.00 43 1007.8
20260509191615 10 295 27.4 38.6 0.00 0.00 0.00 42 1007.5
20260509190056 10 336 20.9 35.4 0.00 0.00 0.00 43 1007.6
20260509184558 10 341 19.3 40.2 0.00 0.00 0.00 43 1007.3
20260509183054 10 336 16.1 37.0 0.00 0.00 0.00 43 1006.9
20260509181558 11 315 22.5 37.0 0.00 0.00 0.00 40 1006.4
20260509180049 11 358 20.9 35.4 0.00 0.00 0.00 41 1006.3
20260509174549 11 331 19.3 30.6 0.00 0.00 0.00 42 1006.0
20260509173047 11 270 16.1 32.2 0.00 0.00 0.00 41 1005.6
20260509171544 10 336 20.9 37.0 0.00 0.00 0.00 43 1005.5
20260509170043 11 299 19.3 35.4 0.00 0.00 0.00 44 1005.4
20260509164539 11 286 14.5 33.8 0.00 0.00 0.00 44 1005.1
20260509163038 11 267 19.3 32.2 0.00 0.00 0.00 43 1004.9
20260509161535 11 297 17.7 33.8 0.00 0.00 0.00 42 1004.8
20260509160029 10 327 20.9 38.6 0.00 0.00 0.00 43 1004.5
20260509154525 11 253 19.3 33.8 0.00 0.00 0.00 41 1004.2
20260509153023 10 327 20.9 35.4 0.00 0.00 0.00 41 1004.0
20260509151518 10 281 14.5 35.4 0.00 0.00 0.00 44 1003.7
20260509150015 10 308 25.7 38.6 0.00 0.00 0.00 41 1003.5
20260509144510 10 341 16.1 32.2 0.00 0.00 0.00 42 1003.2
20260509143008 10 323 22.5 32.2 0.00 0.00 0.00 41 1002.9
20260509141506 10 305 3.2 20.9 0.00 0.00 0.00 42 1002.6
20260509140058 9 312 8.0 20.9 0.00 0.00 0.00 44 1002.5
20260509134555 8 297 4.8 17.7 0.00 0.00 0.00 47 1002.4
20260509133051 8 292 8.0 22.5 0.00 0.00 0.00 45 1002.3
20260509131551 8 297 8.0 17.7 0.00 0.00 0.00 45 1002.1